Miscellaneous Local Product
Issued by NWS North Platte, NE

Home | Current Version | Previous Version | Text Only | Print | Product List | Glossary On
Versions: 1 2 3 4 5 6 7 8 9 10 11 12 13 14 15 16 17 18 19 20 21 22 23 24 25 26 27 28 29 30 31 32 33 34 35 36 37 38 39 40 41 42 43 44 45 46 47 48 49 50
000
AXUS43 KLBF 210510
MISLBF


WESTERN AND NORTH CENTRAL NEBRASKA HOURLY WEATHER ROUNDUP
NATIONAL WEATHER SERVICE NORTH PLATTE NE
1200 AM CDT MON MAY 21 2018

NOTE: "FAIR" INDICATES FEW OR NO CLOUDS BELOW 12,000 FEET WITH NO
SIGNIFICANT WEATHER AND/OR OBSTRUCTIONS TO VISIBILITY.

NOTE: STATIONS NOT REPORTING VARIABLES SUCH AS SKY/WEATHER OR
PRESSURE ARE PROVIDED BY RAWS AND APRS NETWORKS AND ARE NOT UNDER
NATIONAL WEATHER SERVICE QUALITY CONTROL.

...OBSERVATIONS IN AND NEAR THE EASTERN PANHANDLE OF NEBRASKA...

CITY           SKY/WX    TMP DP  RH WIND       PRES   REMARKS
PINE RIDGE     PTCLDY    46  42  86 E8        30.10F
GORDON         FAIR      45  40  82 E5        30.11S
CHADRON        PTCLDY    46  41  82 E3        30.08F
ALLIANCE       CLEAR     45  44  97 SE6       30.09F
SIDNEY         CLEAR     44  43  96 S8        30.11F
CRESCENT LAKE    N/A     50  47  88 CALM        N/A
$$

...OBSERVATIONS IN NORTHERN NEBRASKA AND FAR SOUTHERN SOUTH DAKOTA...

CITY           SKY/WX    TMP DP  RH WIND       PRES   REMARKS
WINNER         CLOUDY    54  45  71 S6        30.10F
VALENTINE      CLOUDY    53  47  79 W3        30.11F
AINSWORTH      CLOUDY    53  50  90 SE3       30.11F
O`NEILL        CLOUDY    54  52  92 S3        30.11F
THEDFORD       CLEAR     51  48  89 CALM      30.12F
BROKEN BOW     CLOUDY    53  51  93 CALM      30.10F
ORD            CLOUDY    53  52  96 CALM      30.10F
ALBION         CLOUDY    52  51  95 CALM      30.11F
VALENTINE NWR    N/A     51  46  83 CALM        N/A
HALSEY           N/A     51  49  93 CALM        N/A
BUTTE            N/A     52  49  90 SE5         N/A
CHAMBERS         N/A     53  50  90 CALM        N/A
EWING            N/A     52  50  93 CALM        N/A
$$

...OBSERVATIONS IN SOUTHWEST NEBRASKA AND FAR NORTHEAST COLORADO...

CITY           SKY/WX    TMP DP  RH WIND       PRES   REMARKS
WRAY           FAIR      50  45  81 SE6       30.12F
HOLYOKE        FAIR      48  45  87 S5        30.12S
IMPERIAL       PTCLDY    48  47  96 S5        30.11F
OGALLALA       CLEAR     49  47  93 CALM      30.10S
NORTH PLATTE   CLEAR     53  51  93 SE7       30.11F
MCCOOK         CLEAR     51  50  96 S5        30.11F
LEXINGTON      FOG       49  48  96 CALM      30.12F VSB 1/4
STAPLETON        N/A     50  47  90 CALM        N/A
GOTHENBURG       N/A     54  49  83 E3          N/A
CALLAWAY         N/A     50  48  92 SE3         N/A
$$

...OBSERVATIONS IN CENTRAL LINCOLN COUNTY AREA...

CITY           SKY/WX    TMP DP  RH WIND       PRES   REMARKS
N.P. AIRPORT   CLEAR     53  51  93 SE7       30.11F
N.P. DOWNTOWN    N/A     54  51  89 CALM        N/A
N.P. SOUTHEAST   N/A     53  49  87 CALM        N/A
$$

...OBSERVATIONS ACROSS THE ROCKIES AND WESTERN HIGH PLAINS...

CITY           SKY/WX    TMP DP  RH WIND       PRES   REMARKS
RAPID CITY     PTCLDY    42  38  85 CALM      30.09F
SCOTTSBLUFF    PTCLDY    50  47  89 SE8       30.09F
CHEYENNE       PTCLDY    44  43  96 SW6       30.11F
DENVER         CLOUDY    48  44  86 SE5       30.10F
BERTHOUD PASS  FAIR      32  21  64 W14       30.39F WCI  22
COPPER MTN     MOCLDY    37  28  70 S15       30.38S WCI  28
MONARCH PASS   PTCLDY    32  28  86 MISG      30.50S
ASPEN          PTCLDY    49  32  52 S5        30.14F
STEAMBOAT      FAIR      47  39  72 CALM      30.14R
LARAMIE        CLOUDY    40  39  97 S9        30.12S WCI  34
CASPER         MOCLDY    47  45  93 N7        30.03R
$$

...OBSERVATIONS ACROSS THE NORTHERN PLAINS...

CITY           SKY/WX    TMP DP  RH WIND       PRES   REMARKS
BISMARCK       CLEAR     51  41  68 CALM      30.10S
FARGO          FAIR      52  42  69 E3        30.12S
PIERRE         CLOUDY    54  46  74 CALM      30.08F
SIOUX FALLS    CLOUDY    56  53  90 CALM      30.10F
$$

...OBSERVATIONS ACROSS THE CENTRAL AND SOUTHERN PLAINS...

CITY           SKY/WX    TMP DP  RH WIND       PRES   REMARKS
OMAHA          CLOUDY    58  56  93 N7        30.06F
GRAND ISLAND   CLOUDY    54  51  90 N5        30.12F
KANSAS CITY    PTCLDY    62  62 100 W5        30.03S FOG
WICHITA        MOCLDY    62  59  90 NE5       30.10R
DODGE CITY     CLEAR     53  49  86 NE6       30.14R
OKLAHOMA CITY  PTCLDY    63  60  90 CALM      30.06R
DALLAS         CLOUDY    72  66  81 SE6       30.01S
AMARILLO       CLEAR     59  51  75 SE10      30.13S
$$




USA.gov is the U.S. government's official web portal to all federal, state and local government web resources and services.